千帆星座-21 (QIANFAN-21)

基本信息
目录编号:
61554
目录名称:
QIANFAN-21
国际标识:
2024-185C
轨道中心:
EARTH
卫星名称:
千帆星座-21
卫星全名:
千帆星座-21 (QIANFAN-21)
卫星状态:
在轨 (已飞行426 天)
发射日期:
2024-10-15 UTC
国别 :
中国 (CN)
星等 :
--
轨道信息
数据来源 国际轨道数据 AOE轨道数据
星历时间 2025-12-15T06:20:45+0800
20小时前
查看轨道信息
2025-12-12T19:00:00+0800
3天前
查看轨道信息
半长轴 7194.674km 7194.685km
偏心率 0.001033 0.0010079
轨道倾角 88.974° 88.973°
近地点辐角 8.180° 15.871°
升交点赤经 76.724° 77.013°
平近点角 351.956° 288.457°
近地点 809.106km 809.298km
远地点 823.972km 823.802km
周期 101.222分钟 101.223分钟
每日圈数 14.226108 14.226077
详细信息
卫星平台:
21
覆盖范围:
全球
运营商:
上海垣信卫星科技有限公司
运营商所在国:
中国
使用方式:
暂无
卫星简介
千帆星座,也被称为“G60星链”计划,是中国版“星链”的重要组成部分,旨在打造一个由1.4万多颗低轨宽频多媒体卫星构成的庞大星座。千帆星座计划由上海垣信卫星科技有限公司负责实施,于2023年启动建设。该项目是我国第二个低轨卫星大星座,旨在通过构建庞大的卫星网络,为全球用户提供高质量的通信和宽带互联网服务。
2D轨道图
3D轨道图
轨道高度分析图
轨道倾角分析图
轨道综合分析图
查看轨道综合分析图